Time,TemperatureF,DewpointF,PressureIn,WindDirection,WindDirectionDegrees,WindSpeedMPH,WindSpeedGustMPH,Humidity,HourlyPrecipIn,Conditions,Clouds,dailyrainin,SoftwareType,DateUTC
2013-05-04 00:02:00,43.2,41.2,30.32,North,0,0.0,0.0,91,-99.99,,,-99.99,PWS SA v1.10,2013-05-04 04:02:00,
2013-05-04 00:04:00,43.2,41.0,30.32,North,0,0.0,0.0,91,-99.99,,,-99.99,PWS SA v1.10,2013-05-04 04:04:00,
2013-05-04 00:08:00,43.1,41.3,30.32,North,0,0.0,0.0,92,-99.99,,,-99.99,PWS SA v1.10,2013-05-04 04:08:00,
2013-05-04 00:14:00,43.3,41.3,30.31,North,0,0.0,0.0,92,-99.99,,,-99.99,PWS SA v1.10,2013-05-04 04:14:00,
2013-05-04 00:20:00,43.8,41.7,30.32,North,0,0.0,0.0,92,-99.99,,,-99.99,PWS SA v1.10,2013-05-04 04:20:00,
2013-05-04 00:22:00,43.7,41.4,30.32,North,0,0.0,0.0,92,-99.99,,,-99.99,PWS SA v1.10,2013-05-04 04:22:00,
2013-05-04 00:28:00,43.8,41.5,30.31,North,0,0.0,0.0,91,-99.99,,,-99.99,PWS SA v1.10,2013-05-04 04:28:00,
2013-05-04 00:34:00,43.3,41.1,30.31,North,0,0.0,0.0,91,-99.99,,,-99.99,PWS SA v1.10,2013-05-04 04:34:00,
2013-05-04 00:40:00,42.8,40.7,30.31,North,0,0.0,0.0,91,-99.99,,,-99.99,PWS SA v1.10,2013-05-04 04:40:00,
2013-05-04 00:46:00,42.8,40.8,30.31,North,0,0.0,0.0,92,-99.99,,,-99.99,PWS SA v1.10,2013-05-04 04:46:00,
2013-05-04 00:52:00,42.8,40.8,30.31,North,0,0.0,0.0,92,-99.99,,,-99.99,PWS SA v1.10,2013-05-04 04:52:00,
2013-05-04 00:58:00,42.5,40.6,30.30,North,0,0.0,0.0,92,-99.99,,,-99.99,PWS SA v1.10,2013-05-04 04:58:00,
2013-05-04 01:04:00,42.4,40.7,30.31,North,0,0.0,0.0,93,-99.99,,,-99.99,PWS SA v1.10,2013-05-04 05:04:00,
2013-05-04 01:10:00,42.6,40.9,30.31,North,0,0.0,0.0,93,-99.99,,,-99.99,PWS SA v1.10,2013-05-04 05:10:00,
2013-05-04 01:16:00,42.3,40.6,30.30,North,0,0.0,0.0,93,-99.99,,,-99.99,PWS SA v1.10,2013-05-04 05:16:00,
2013-05-04 01:22:00,42.5,40.5,30.30,North,0,0.0,0.0,93,-99.99,,,-99.99,PWS SA v1.10,2013-05-04 05:22:00,
2013-05-04 01:28:00,42.0,40.4,30.30,North,0,0.0,0.0,93,-99.99,,,-99.99,PWS SA v1.10,2013-05-04 05:28:00,
2013-05-04 01:34:00,42.2,40.4,30.30,North,0,0.0,0.0,93,-99.99,,,-99.99,PWS SA v1.10,2013-05-04 05:34:00,
2013-05-04 01:40:00,42.0,40.1,30.30,North,0,0.0,0.0,93,-99.99,,,-99.99,PWS SA v1.10,2013-05-04 05:40:00,
2013-05-04 01:46:00,42.1,40.4,30.30,North,0,0.0,0.0,93,-99.99,,,-99.99,PWS SA v1.10,2013-05-04 05:46:00,
2013-05-04 01:52:00,42.0,40.2,30.30,North,0,0.0,0.0,93,-99.99,,,-99.99,PWS SA v1.10,2013-05-04 05:52:00,
2013-05-04 01:58:00,42.0,40.1,30.30,North,0,0.0,0.0,93,-99.99,,,-99.99,PWS SA v1.10,2013-05-04 05:58:00,
2013-05-04 02:04:00,41.5,40.0,30.29,North,0,0.0,0.0,93,-99.99,,,-99.99,PWS SA v1.10,2013-05-04 06:04:00,
2013-05-04 02:10:00,41.7,40.0,30.29,North,0,0.0,0.0,93,-99.99,,,-99.99,PWS SA v1.10,2013-05-04 06:10:00,
2013-05-04 02:16:00,41.2,39.8,30.29,North,0,0.0,0.0,93,-99.99,,,-99.99,PWS SA v1.10,2013-05-04 06:16:00,
2013-05-04 02:22:00,41.0,39.9,30.29,North,0,0.0,0.0,95,-99.99,,,-99.99,PWS SA v1.10,2013-05-04 06:22:00,
2013-05-04 02:28:00,41.0,39.9,30.29,North,0,0.0,0.0,95,-99.99,,,-99.99,PWS SA v1.10,2013-05-04 06:28:00,
2013-05-04 02:34:00,41.5,40.3,30.29,North,0,0.0,0.0,95,-99.99,,,-99.99,PWS SA v1.10,2013-05-04 06:34:00,
2013-05-04 02:40:00,41.3,39.8,30.29,North,0,0.0,0.0,94,-99.99,,,-99.99,PWS SA v1.10,2013-05-04 06:40:00,
2013-05-04 02:46:00,41.2,39.8,30.29,North,0,0.0,0.0,94,-99.99,,,-99.99,PWS SA v1.10,2013-05-04 06:46:00,
2013-05-04 02:52:00,41.4,39.9,30.29,North,0,0.0,0.0,94,-99.99,,,-99.99,PWS SA v1.10,2013-05-04 06:52:00,
2013-05-04 02:58:00,41.0,39.9,30.28,North,0,0.0,0.0,94,-99.99,,,-99.99,PWS SA v1.10,2013-05-04 06:58:00,
2013-05-04 03:04:00,40.7,39.6,30.28,North,0,0.0,0.0,95,-99.99,,,-99.99,PWS SA v1.10,2013-05-04 07:04:00,
2013-05-04 03:10:00,40.8,39.5,30.28,North,0,0.0,0.0,95,-99.99,,,-99.99,PWS SA v1.10,2013-05-04 07:10:00,
2013-05-04 03:16:00,40.8,39.2,30.29,North,0,0.0,0.0,95,-99.99,,,-99.99,PWS SA v1.10,2013-05-04 07:16:00,
2013-05-04 03:22:00,40.4,39.3,30.28,North,0,0.0,0.0,95,-99.99,,,-99.99,PWS SA v1.10,2013-05-04 07:22:00,
2013-05-04 03:28:00,40.7,39.4,30.28,North,0,0.0,0.0,95,-99.99,,,-99.99,PWS SA v1.10,2013-05-04 07:28:00,
2013-05-04 03:34:00,40.7,39.3,30.29,North,0,0.0,0.0,95,-99.99,,,-99.99,PWS SA v1.10,2013-05-04 07:34:00,
2013-05-04 03:40:00,40.0,39.2,30.28,North,0,0.0,0.0,95,-99.99,,,-99.99,PWS SA v1.10,2013-05-04 07:40:00,
2013-05-04 03:46:00,39.8,39.3,30.28,North,0,0.0,0.0,96,-99.99,,,-99.99,PWS SA v1.10,2013-05-04 07:46:00,
2013-05-04 03:52:00,39.8,39.2,30.28,North,0,0.0,0.0,96,-99.99,,,-99.99,PWS SA v1.10,2013-05-04 07:52:00,
2013-05-04 03:58:00,39.9,39.1,30.28,North,0,0.0,0.0,96,-99.99,,,-99.99,PWS SA v1.10,2013-05-04 07:58:00,
2013-05-04 04:04:00,39.8,39.1,30.28,North,0,0.0,0.0,96,-99.99,,,-99.99,PWS SA v1.10,2013-05-04 08:04:00,
2013-05-04 04:10:00,39.8,39.2,30.28,North,0,0.0,0.0,96,-99.99,,,-99.99,PWS SA v1.10,2013-05-04 08:10:00,
2013-05-04 04:16:00,40.2,39.4,30.28,North,0,0.0,0.0,96,-99.99,,,-99.99,PWS SA v1.10,2013-05-04 08:16:00,
2013-05-04 04:22:00,39.7,38.7,30.28,North,0,0.0,0.0,96,-99.99,,,-99.99,PWS SA v1.10,2013-05-04 08:22:00,
2013-05-04 04:28:00,39.7,38.8,30.28,North,0,0.0,0.0,96,-99.99,,,-99.99,PWS SA v1.10,2013-05-04 08:28:00,
2013-05-04 04:34:00,39.5,38.7,30.29,North,0,0.0,0.0,96,-99.99,,,-99.99,PWS SA v1.10,2013-05-04 08:34:00,
2013-05-04 04:40:00,39.8,38.7,30.29,North,0,0.0,0.0,95,-99.99,,,-99.99,PWS SA v1.10,2013-05-04 08:40:00,
2013-05-04 04:46:00,39.2,38.5,30.28,North,0,0.0,0.0,95,-99.99,,,-99.99,PWS SA v1.10,2013-05-04 08:46:00,
2013-05-04 04:52:00,39.5,38.7,30.28,North,0,0.0,0.0,96,-99.99,,,-99.99,PWS SA v1.10,2013-05-04 08:52:00,
2013-05-04 04:58:00,39.7,38.7,30.28,North,0,0.0,0.0,96,-99.99,,,-99.99,PWS SA v1.10,2013-05-04 08:58:00,
2013-05-04 05:04:00,39.8,38.6,30.28,North,0,0.0,0.0,95,-99.99,,,-99.99,PWS SA v1.10,2013-05-04 09:04:00,
2013-05-04 05:10:00,39.4,38.5,30.28,North,0,0.0,0.0,95,-99.99,,,-99.99,PWS SA v1.10,2013-05-04 09:10:00,
2013-05-04 05:16:00,39.2,38.4,30.28,North,0,0.0,0.0,96,-99.99,,,-99.99,PWS SA v1.10,2013-05-04 09:16:00,
2013-05-04 05:22:00,39.0,38.2,30.28,North,0,0.0,0.0,96,-99.99,,,-99.99,PWS SA v1.10,2013-05-04 09:22:00,
2013-05-04 05:28:00,39.5,38.4,30.28,North,0,0.0,0.0,96,-99.99,,,-99.99,PWS SA v1.10,2013-05-04 09:28:00,
2013-05-04 05:34:00,39.6,38.9,30.28,North,0,0.0,0.0,96,-99.99,,,-99.99,PWS SA v1.10,2013-05-04 09:34:00,
2013-05-04 05:40:00,39.4,38.5,30.28,North,0,0.0,0.0,95,-99.99,,,-99.99,PWS SA v1.10,2013-05-04 09:40:00,
2013-05-04 05:46:00,39.5,38.4,30.28,North,0,0.0,0.0,95,-99.99,,,-99.99,PWS SA v1.10,2013-05-04 09:46:00,
2013-05-04 05:52:00,39.8,38.5,30.28,North,0,0.0,0.0,95,-99.99,,,-99.99,PWS SA v1.10,2013-05-04 09:52:00,
2013-05-04 05:58:00,39.5,38.4,30.28,North,0,0.0,0.0,95,-99.99,,,-99.99,PWS SA v1.10,2013-05-04 09:58:00,
2013-05-04 06:04:00,39.5,38.4,30.29,North,0,0.0,0.0,95,-99.99,,,-99.99,PWS SA v1.10,2013-05-04 10:04:00,
2013-05-04 06:10:00,39.3,38.4,30.29,North,0,0.0,0.0,95,-99.99,,,-99.99,PWS SA v1.10,2013-05-04 10:10:00,
2013-05-04 06:16:00,39.5,38.7,30.29,North,0,0.0,0.0,96,-99.99,,,-99.99,PWS SA v1.10,2013-05-04 10:16:00,
2013-05-04 06:22:00,39.3,38.5,30.30,North,0,0.0,0.0,96,-99.99,,,-99.99,PWS SA v1.10,2013-05-04 10:22:00,
2013-05-04 06:28:00,39.3,38.7,30.30,North,0,0.0,0.0,96,-99.99,,,-99.99,PWS SA v1.10,2013-05-04 10:28:00,
2013-05-04 06:34:00,39.4,38.8,30.30,North,0,0.0,0.0,97,-99.99,,,-99.99,PWS SA v1.10,2013-05-04 10:34:00,
2013-05-04 06:40:00,39.6,39.1,30.29,North,0,0.0,0.0,97,-99.99,,,-99.99,PWS SA v1.10,2013-05-04 10:40:00,
2013-05-04 06:46:00,39.9,39.3,30.29,North,0,0.0,0.0,97,-99.99,,,-99.99,PWS SA v1.10,2013-05-04 10:46:00,
2013-05-04 06:52:00,40.3,39.9,30.29,North,0,0.0,0.0,98,-99.99,,,-99.99,PWS SA v1.10,2013-05-04 10:52:00,
2013-05-04 06:58:00,40.4,40.0,30.30,North,0,0.0,0.0,98,-99.99,,,-99.99,PWS SA v1.10,2013-05-04 10:58:00,
2013-05-04 07:04:00,41.2,40.8,30.30,North,0,0.0,0.0,98,-99.99,,,-99.99,PWS SA v1.10,2013-05-04 11:04:00,
2013-05-04 07:10:00,41.9,41.3,30.30,North,0,0.0,0.0,98,-99.99,,,-99.99,PWS SA v1.10,2013-05-04 11:10:00,
2013-05-04 07:16:00,42.2,41.7,30.30,North,0,0.0,0.0,98,-99.99,,,-99.99,PWS SA v1.10,2013-05-04 11:16:00,
2013-05-04 07:22:00,42.9,42.3,30.30,North,0,0.0,0.0,98,-99.99,,,-99.99,PWS SA v1.10,2013-05-04 11:22:00,
2013-05-04 07:28:00,43.5,42.4,30.30,North,0,0.0,0.0,97,-99.99,,,-99.99,PWS SA v1.10,2013-05-04 11:28:00,
2013-05-04 07:34:00,44.4,43.2,30.31,North,0,0.0,0.0,96,-99.99,,,-99.99,PWS SA v1.10,2013-05-04 11:34:00,
2013-05-04 07:40:00,45.3,43.4,30.30,North,0,0.0,0.0,94,-99.99,,,-99.99,PWS SA v1.10,2013-05-04 11:40:00,
2013-05-04 07:46:00,46.4,43.6,30.30,North,0,0.0,1.0,91,-99.99,,,-99.99,PWS SA v1.10,2013-05-04 11:46:00,
2013-05-04 07:52:00,47.2,43.4,30.30,North,0,0.0,1.0,88,-99.99,,,-99.99,PWS SA v1.10,2013-05-04 11:52:00,
2013-05-04 08:02:00,47.8,43.8,30.30,North,0,0.0,1.0,87,-99.99,,,-99.99,PWS SA v1.10,2013-05-04 12:02:00,
2013-05-04 08:08:00,48.5,43.9,30.30,North,0,0.0,1.0,85,-99.99,,,-99.99,PWS SA v1.10,2013-05-04 12:08:00,
2013-05-04 08:14:00,49.4,44.3,30.30,North,4,1.7,1.7,84,-99.99,,,-99.99,PWS SA v1.10,2013-05-04 12:14:00,
2013-05-04 08:20:00,50.4,44.1,30.30,North,0,0.0,1.0,81,-99.99,,,-99.99,PWS SA v1.10,2013-05-04 12:20:00,
2013-05-04 08:26:00,51.1,44.5,30.30,NE,38,3.4,3.4,79,-99.99,,,-99.99,PWS SA v1.10,2013-05-04 12:26:00,
2013-05-04 08:32:00,51.9,44.5,30.30,North,0,0.0,3.0,77,-99.99,,,-99.99,PWS SA v1.10,2013-05-04 12:32:00,
2013-05-04 08:38:00,52.2,43.7,30.30,NE,48,3.4,5.0,73,-99.99,,,-99.99,PWS SA v1.10,2013-05-04 12:38:00,
2013-05-04 08:44:00,52.6,44.8,30.30,NE,43,1.7,5.0,76,-99.99,,,-99.99,PWS SA v1.10,2013-05-04 12:44:00,
2013-05-04 08:50:00,52.7,43.9,30.31,ENE,63,3.4,3.4,73,-99.99,,,-99.99,PWS SA v1.10,2013-05-04 12:50:00,
2013-05-04 08:56:00,52.9,44.7,30.31,NE,52,3.4,5.0,75,-99.99,,,-99.99,PWS SA v1.10,2013-05-04 12:56:00,
2013-05-04 09:02:00,52.8,44.4,30.30,North,0,0.0,5.0,74,-99.99,,,-99.99,PWS SA v1.10,2013-05-04 13:02:00,
2013-05-04 09:04:00,52.8,44.1,30.31,East,99,5.1,5.1,73,-99.99,,,-99.99,PWS SA v1.10,2013-05-04 13:04:00,
2013-05-04 09:10:00,53.2,44.1,30.31,NE,44,1.7,5.0,72,-99.99,,,-99.99,PWS SA v1.10,2013-05-04 13:10:00,
2013-05-04 09:16:00,53.2,44.2,30.30,NE,55,3.4,5.0,72,-99.99,,,-99.99,PWS SA v1.10,2013-05-04 13:16:00,
2013-05-04 09:22:00,53.2,44.2,30.30,NNE,18,6.8,6.8,71,-99.99,,,-99.99,PWS SA v1.10,2013-05-04 13:22:00,
2013-05-04 09:28:00,53.3,44.5,30.30,North,0,0.0,6.0,72,-99.99,,,-99.99,PWS SA v1.10,2013-05-04 13:28:00,
2013-05-04 09:34:00,53.5,44.2,30.29,North,0,0.0,6.0,71,-99.99,,,-99.99,PWS SA v1.10,2013-05-04 13:34:00,
2013-05-04 09:40:00,53.8,44.1,30.30,North,0,0.0,1.0,71,-99.99,,,-99.99,PWS SA v1.10,2013-05-04 13:40:00,
2013-05-04 09:46:00,53.8,43.9,30.30,NE,34,3.4,5.0,70,-99.99,,,-99.99,PWS SA v1.10,2013-05-04 13:46:00,
2013-05-04 09:52:00,53.5,43.7,30.30,East,89,3.4,6.0,70,-99.99,,,-99.99,PWS SA v1.10,2013-05-04 13:52:00,
2013-05-04 09:58:00,54.1,44.2,30.30,North,0,0.0,6.0,70,-99.99,,,-99.99,PWS SA v1.10,2013-05-04 13:58:00,
2013-05-04 10:04:00,54.3,44.4,30.30,ESE,115,1.7,6.0,70,-99.99,,,-99.99,PWS SA v1.10,2013-05-04 14:04:00,
2013-05-04 10:10:00,54.0,43.9,30.30,NNE,29,1.7,3.0,70,-99.99,,,-99.99,PWS SA v1.10,2013-05-04 14:10:00,
2013-05-04 10:16:00,55.2,44.9,30.30,ENE,76,1.7,6.0,70,-99.99,,,-99.99,PWS SA v1.10,2013-05-04 14:16:00,
2013-05-04 10:22:00,55.5,45.4,30.30,SE,128,3.4,6.0,70,-99.99,,,-99.99,PWS SA v1.10,2013-05-04 14:22:00,
2013-05-04 10:28:00,55.9,45.2,30.30,ESE,107,3.4,6.0,68,-99.99,,,-99.99,PWS SA v1.10,2013-05-04 14:28:00,
2013-05-04 10:34:00,56.3,45.6,30.30,ESE,118,6.8,6.8,69,-99.99,,,-99.99,PWS SA v1.10,2013-05-04 14:34:00,
2013-05-04 10:40:00,56.1,44.7,30.30,North,0,0.0,6.0,66,-99.99,,,-99.99,PWS SA v1.10,2013-05-04 14:40:00,
2013-05-04 10:46:00,56.3,44.8,30.30,ESE,107,5.1,6.0,67,-99.99,,,-99.99,PWS SA v1.10,2013-05-04 14:46:00,
2013-05-04 10:52:00,56.1,44.4,30.30,North,0,0.0,5.0,66,-99.99,,,-99.99,PWS SA v1.10,2013-05-04 14:52:00,
2013-05-04 10:58:00,56.2,43.8,30.30,NE,42,5.1,5.1,64,-99.99,,,-99.99,PWS SA v1.10,2013-05-04 14:58:00,
2013-05-04 11:04:00,57.0,45.1,30.30,NE,44,1.7,5.0,65,-99.99,,,-99.99,PWS SA v1.10,2013-05-04 15:04:00,
2013-05-04 11:10:00,56.9,44.5,30.30,NW,313,5.1,8.0,64,-99.99,,,-99.99,PWS SA v1.10,2013-05-04 15:10:00,
2013-05-04 11:16:00,56.6,43.6,30.30,North,0,0.0,8.0,62,-99.99,,,-99.99,PWS SA v1.10,2013-05-04 15:16:00,
2013-05-04 11:22:00,57.0,44.4,30.30,NE,52,1.7,6.0,63,-99.99,,,-99.99,PWS SA v1.10,2013-05-04 15:22:00,
2013-05-04 11:28:00,57.1,43.5,30.30,ENE,59,3.4,6.0,61,-99.99,,,-99.99,PWS SA v1.10,2013-05-04 15:28:00,
2013-05-04 11:34:00,56.5,42.6,30.30,NE,34,5.1,5.1,60,-99.99,,,-99.99,PWS SA v1.10,2013-05-04 15:34:00,
2013-05-04 11:40:00,57.8,44.5,30.30,ENE,77,5.1,5.1,62,-99.99,,,-99.99,PWS SA v1.10,2013-05-04 15:40:00,
2013-05-04 11:46:00,58.1,45.0,30.30,North,0,0.0,5.0,62,-99.99,,,-99.99,PWS SA v1.10,2013-05-04 15:46:00,
2013-05-04 11:52:00,58.2,43.9,30.29,NNE,27,3.4,5.0,59,-99.99,,,-99.99,PWS SA v1.10,2013-05-04 15:52:00,
2013-05-04 11:58:00,58.1,44.0,30.30,North,0,0.0,12.0,60,-99.99,,,-99.99,PWS SA v1.10,2013-05-04 15:58:00,
2013-05-04 12:04:00,58.0,44.0,30.29,SSE,147,1.7,12.0,60,-99.99,,,-99.99,PWS SA v1.10,2013-05-04 16:04:00,
2013-05-04 12:10:00,59.0,44.5,30.29,East,92,1.7,8.0,59,-99.99,,,-99.99,PWS SA v1.10,2013-05-04 16:10:00,
2013-05-04 12:16:00,58.4,43.7,30.29,NE,37,3.4,8.0,58,-99.99,,,-99.99,PWS SA v1.10,2013-05-04 16:16:00,
2013-05-04 12:22:00,58.4,43.4,30.30,ENE,76,3.4,3.4,58,-99.99,,,-99.99,PWS SA v1.10,2013-05-04 16:22:00,
2013-05-04 12:28:00,58.6,44.2,30.30,ENE,71,5.1,8.0,59,-99.99,,,-99.99,PWS SA v1.10,2013-05-04 16:28:00,
2013-05-04 12:34:00,59.2,44.8,30.29,East,83,3.4,8.0,60,-99.99,,,-99.99,PWS SA v1.10,2013-05-04 16:34:00,
2013-05-04 12:40:00,58.6,43.3,30.30,NNE,18,3.4,5.0,57,-99.99,,,-99.99,PWS SA v1.10,2013-05-04 16:40:00,
2013-05-04 12:46:00,58.6,44.1,30.29,North,0,0.0,8.0,59,-99.99,,,-99.99,PWS SA v1.10,2013-05-04 16:46:00,
2013-05-04 12:52:00,59.5,44.6,30.29,East,87,1.7,8.0,58,-99.99,,,-99.99,PWS SA v1.10,2013-05-04 16:52:00,
2013-05-04 12:58:00,59.2,44.7,30.29,South,188,5.1,6.0,59,-99.99,,,-99.99,PWS SA v1.10,2013-05-04 16:58:00,
2013-05-04 13:04:00,59.2,44.0,30.30,NE,53,3.4,6.0,57,-99.99,,,-99.99,PWS SA v1.10,2013-05-04 17:04:00,
2013-05-04 13:10:00,60.3,45.8,30.29,East,97,3.4,6.0,60,-99.99,,,-99.99,PWS SA v1.10,2013-05-04 17:10:00,
2013-05-04 13:16:00,60.0,43.2,30.29,NNE,13,3.4,6.0,54,-99.99,,,-99.99,PWS SA v1.10,2013-05-04 17:16:00,
2013-05-04 13:22:00,60.9,44.4,30.29,NE,35,6.8,6.8,55,-99.99,,,-99.99,PWS SA v1.10,2013-05-04 17:22:00,
2013-05-04 13:28:00,59.6,43.4,30.29,North,0,0.0,6.0,55,-99.99,,,-99.99,PWS SA v1.10,2013-05-04 17:28:00,
2013-05-04 13:34:00,60.5,44.9,30.30,North,0,0.0,6.0,58,-99.99,,,-99.99,PWS SA v1.10,2013-05-04 17:34:00,
2013-05-04 13:40:00,61.1,45.0,30.29,North,0,0.0,6.0,55,-99.99,,,-99.99,PWS SA v1.10,2013-05-04 17:40:00,
2013-05-04 13:46:00,60.8,43.7,30.29,NE,38,3.4,6.0,53,-99.99,,,-99.99,PWS SA v1.10,2013-05-04 17:46:00,
2013-05-04 13:52:00,61.1,43.6,30.29,North,0,0.0,6.0,53,-99.99,,,-99.99,PWS SA v1.10,2013-05-04 17:52:00,
2013-05-04 13:58:00,61.9,44.6,30.29,North,0,0.0,6.0,54,-99.99,,,-99.99,PWS SA v1.10,2013-05-04 17:58:00,
2013-05-04 14:04:00,60.6,42.3,30.29,ENE,61,1.7,6.0,51,-99.99,,,-99.99,PWS SA v1.10,2013-05-04 18:04:00,
2013-05-04 14:10:00,60.5,43.1,30.28,NNE,31,5.1,6.0,53,-99.99,,,-99.99,PWS SA v1.10,2013-05-04 18:10:00,
2013-05-04 14:16:00,60.5,43.0,30.29,North,0,0.0,5.0,53,-99.99,,,-99.99,PWS SA v1.10,2013-05-04 18:16:00,
2013-05-04 14:22:00,60.5,42.7,30.28,East,82,3.4,8.0,53,-99.99,,,-99.99,PWS SA v1.10,2013-05-04 18:22:00,
2013-05-04 14:28:00,59.1,42.3,30.28,North,0,0.0,8.0,54,-99.99,,,-99.99,PWS SA v1.10,2013-05-04 18:28:00,
2013-05-04 14:34:00,60.0,42.6,30.28,SSE,147,3.4,6.0,54,-99.99,,,-99.99,PWS SA v1.10,2013-05-04 18:34:00,
2013-05-04 14:40:00,59.7,43.0,30.28,North,0,0.0,6.0,54,-99.99,,,-99.99,PWS SA v1.10,2013-05-04 18:40:00,
2013-05-04 14:46:00,59.5,41.8,30.28,North,0,0.0,6.0,53,-99.99,,,-99.99,PWS SA v1.10,2013-05-04 18:46:00,
2013-05-04 14:52:00,58.7,41.2,30.28,ESE,112,5.1,6.0,52,-99.99,,,-99.99,PWS SA v1.10,2013-05-04 18:52:00,
2013-05-04 14:58:00,58.3,40.8,30.28,East,79,5.1,6.0,52,-99.99,,,-99.99,PWS SA v1.10,2013-05-04 18:58:00,
2013-05-04 15:04:00,57.6,40.3,30.28,NNE,24,3.4,6.0,52,-99.99,,,-99.99,PWS SA v1.10,2013-05-04 19:04:00,
2013-05-04 15:10:00,57.5,40.0,30.28,SE,136,5.1,6.0,53,-99.99,,,-99.99,PWS SA v1.10,2013-05-04 19:10:00,
2013-05-04 15:16:00,57.8,40.1,30.27,North,0,0.0,6.0,52,-99.99,,,-99.99,PWS SA v1.10,2013-05-04 19:16:00,
2013-05-04 15:22:00,58.0,40.6,30.27,North,0,0.0,8.0,53,-99.99,,,-99.99,PWS SA v1.10,2013-05-04 19:22:00,
2013-05-04 15:28:00,58.8,41.4,30.27,East,82,1.7,8.0,53,-99.99,,,-99.99,PWS SA v1.10,2013-05-04 19:28:00,
2013-05-04 15:34:00,58.6,41.0,30.27,SE,126,1.7,3.0,53,-99.99,,,-99.99,PWS SA v1.10,2013-05-04 19:34:00,
2013-05-04 15:40:00,58.0,40.1,30.26,East,87,3.4,3.4,52,-99.99,,,-99.99,PWS SA v1.10,2013-05-04 19:40:00,
2013-05-04 15:46:00,58.0,40.0,30.27,SE,125,5.1,5.1,52,-99.99,,,-99.99,PWS SA v1.10,2013-05-04 19:46:00,
2013-05-04 15:52:00,58.0,38.6,30.27,ESE,121,5.1,5.1,49,-99.99,,,-99.99,PWS SA v1.10,2013-05-04 19:52:00,
2013-05-04 15:58:00,58.1,40.0,30.26,ESE,117,5.1,5.1,52,-99.99,,,-99.99,PWS SA v1.10,2013-05-04 19:58:00,
2013-05-04 16:04:00,56.4,38.4,30.26,North,0,0.0,6.0,51,-99.99,,,-99.99,PWS SA v1.10,2013-05-04 20:04:00,
2013-05-04 16:10:00,56.3,38.3,30.27,North,0,0.0,6.0,51,-99.99,,,-99.99,PWS SA v1.10,2013-05-04 20:10:00,
2013-05-04 16:16:00,56.7,38.2,30.27,ESE,121,1.7,6.0,51,-99.99,,,-99.99,PWS SA v1.10,2013-05-04 20:16:00,
2013-05-04 16:22:00,56.3,38.9,30.26,East,93,1.7,6.0,53,-99.99,,,-99.99,PWS SA v1.10,2013-05-04 20:22:00,
2013-05-04 16:28:00,56.6,39.4,30.26,North,0,0.0,6.0,53,-99.99,,,-99.99,PWS SA v1.10,2013-05-04 20:28:00,
2013-05-04 16:34:00,56.5,39.8,30.26,North,0,0.0,6.0,54,-99.99,,,-99.99,PWS SA v1.10,2013-05-04 20:34:00,
2013-05-04 16:40:00,55.9,38.7,30.26,ESE,112,8.5,8.5,53,-99.99,,,-99.99,PWS SA v1.10,2013-05-04 20:40:00,
2013-05-04 16:46:00,56.6,40.0,30.26,North,0,0.0,8.0,54,-99.99,,,-99.99,PWS SA v1.10,2013-05-04 20:46:00,
2013-05-04 16:52:00,55.7,39.6,30.26,ESE,105,3.4,8.0,55,-99.99,,,-99.99,PWS SA v1.10,2013-05-04 20:52:00,
2013-05-04 16:58:00,55.7,40.4,30.26,East,98,5.1,5.1,57,-99.99,,,-99.99,PWS SA v1.10,2013-05-04 20:58:00,
2013-05-04 17:04:00,55.5,40.4,30.26,ESE,121,5.1,5.1,57,-99.99,,,-99.99,PWS SA v1.10,2013-05-04 21:04:00,
2013-05-04 17:10:00,55.3,40.4,30.26,ENE,65,1.7,5.0,58,-99.99,,,-99.99,PWS SA v1.10,2013-05-04 21:10:00,
2013-05-04 17:16:00,55.5,40.0,30.26,North,0,0.0,5.0,57,-99.99,,,-99.99,PWS SA v1.10,2013-05-04 21:16:00,
2013-05-04 17:22:00,54.7,39.4,30.26,North,0,0.0,5.0,57,-99.99,,,-99.99,PWS SA v1.10,2013-05-04 21:22:00,
2013-05-04 17:28:00,55.5,40.5,30.26,SE,141,5.1,5.1,59,-99.99,,,-99.99,PWS SA v1.10,2013-05-04 21:28:00,
2013-05-04 17:34:00,55.1,39.7,30.26,North,0,0.0,5.0,57,-99.99,,,-99.99,PWS SA v1.10,2013-05-04 21:34:00,
2013-05-04 17:40:00,53.8,38.4,30.26,North,0,0.0,5.0,56,-99.99,,,-99.99,PWS SA v1.10,2013-05-04 21:40:00,
2013-05-04 17:46:00,53.5,38.8,30.25,NNE,22,1.7,3.0,58,-99.99,,,-99.99,PWS SA v1.10,2013-05-04 21:46:00,
2013-05-04 17:52:00,53.3,38.7,30.26,SE,124,1.7,3.0,59,-99.99,,,-99.99,PWS SA v1.10,2013-05-04 21:52:00,
2013-05-04 17:58:00,53.2,38.4,30.25,North,0,0.0,1.0,58,-99.99,,,-99.99,PWS SA v1.10,2013-05-04 21:58:00,
2013-05-04 18:04:00,52.7,38.1,30.26,North,0,0.0,1.0,58,-99.99,,,-99.99,PWS SA v1.10,2013-05-04 22:04:00,
2013-05-04 18:10:00,52.4,37.5,30.26,North,0,0.0,5.0,57,-99.99,,,-99.99,PWS SA v1.10,2013-05-04 22:10:00,
2013-05-04 18:16:00,52.0,37.6,30.26,North,0,0.0,6.0,58,-99.99,,,-99.99,PWS SA v1.10,2013-05-04 22:16:00,
2013-05-04 18:22:00,51.8,37.2,30.26,SSE,162,3.4,6.0,58,-99.99,,,-99.99,PWS SA v1.10,2013-05-04 22:22:00,
2013-05-04 18:28:00,51.2,37.6,30.26,North,0,0.0,6.0,60,-99.99,,,-99.99,PWS SA v1.10,2013-05-04 22:28:00,
2013-05-04 18:34:00,50.5,37.8,30.26,North,0,0.0,5.0,62,-99.99,,,-99.99,PWS SA v1.10,2013-05-04 22:34:00,
2013-05-04 18:40:00,50.2,38.5,30.26,North,0,0.0,3.0,65,-99.99,,,-99.99,PWS SA v1.10,2013-05-04 22:40:00,
2013-05-04 18:46:00,49.8,38.6,30.26,ESE,102,1.7,3.0,66,-99.99,,,-99.99,PWS SA v1.10,2013-05-04 22:46:00,
2013-05-04 18:52:00,49.6,39.0,30.26,North,0,0.0,1.0,68,-99.99,,,-99.99,PWS SA v1.10,2013-05-04 22:52:00,
2013-05-04 18:58:00,49.1,38.7,30.26,ESE,109,3.4,3.4,68,-99.99,,,-99.99,PWS SA v1.10,2013-05-04 22:58:00,
2013-05-04 19:04:00,48.7,38.8,30.26,North,0,0.0,3.0,69,-99.99,,,-99.99,PWS SA v1.10,2013-05-04 23:04:00,
2013-05-04 19:10:00,48.1,38.5,30.26,North,0,0.0,3.0,70,-99.99,,,-99.99,PWS SA v1.10,2013-05-04 23:10:00,
2013-05-04 19:16:00,47.6,39.0,30.26,North,0,0.0,1.0,73,-99.99,,,-99.99,PWS SA v1.10,2013-05-04 23:16:00,
2013-05-04 19:22:00,47.3,39.0,30.26,NNE,29,1.7,3.0,74,-99.99,,,-99.99,PWS SA v1.10,2013-05-04 23:22:00,
2013-05-04 19:28:00,47.0,39.3,30.27,North,0,0.0,3.0,75,-99.99,,,-99.99,PWS SA v1.10,2013-05-04 23:28:00,
2013-05-04 19:34:00,46.8,38.8,30.27,North,0,0.0,1.0,75,-99.99,,,-99.99,PWS SA v1.10,2013-05-04 23:34:00,
2013-05-04 19:40:00,46.6,38.8,30.27,North,0,0.0,3.0,75,-99.99,,,-99.99,PWS SA v1.10,2013-05-04 23:40:00,
2013-05-04 19:46:00,46.3,38.7,30.26,North,0,0.0,3.0,75,-99.99,,,-99.99,PWS SA v1.10,2013-05-04 23:46:00,
2013-05-04 19:52:00,46.2,38.8,30.27,North,0,0.0,3.0,76,-99.99,,,-99.99,PWS SA v1.10,2013-05-04 23:52:00,
2013-05-04 19:58:00,45.8,39.1,30.27,North,0,0.0,1.0,78,-99.99,,,-99.99,PWS SA v1.10,2013-05-04 23:58:00,
2013-05-04 20:04:00,45.5,39.3,30.27,North,0,0.0,1.0,79,-99.99,,,-99.99,PWS SA v1.10,2013-05-05 00:04:00,
2013-05-04 20:10:00,45.2,39.2,30.27,North,0,0.0,1.0,80,-99.99,,,-99.99,PWS SA v1.10,2013-05-05 00:10:00,
2013-05-04 20:16:00,45.1,39.3,30.27,North,0,0.0,1.0,81,-99.99,,,-99.99,PWS SA v1.10,2013-05-05 00:16:00,
2013-05-04 20:22:00,44.9,39.1,30.28,North,0,0.0,1.0,81,-99.99,,,-99.99,PWS SA v1.10,2013-05-05 00:22:00,
2013-05-04 20:28:00,44.7,39.2,30.28,North,0,0.0,0.0,81,-99.99,,,-99.99,PWS SA v1.10,2013-05-05 00:28:00,
2013-05-04 20:34:00,44.5,39.3,30.28,North,0,0.0,1.0,82,-99.99,,,-99.99,PWS SA v1.10,2013-05-05 00:34:00,
2013-05-04 20:40:00,44.4,39.1,30.28,North,0,0.0,1.0,82,-99.99,,,-99.99,PWS SA v1.10,2013-05-05 00:40:00,
2013-05-04 20:46:00,44.1,39.2,30.28,North,0,0.0,0.0,83,-99.99,,,-99.99,PWS SA v1.10,2013-05-05 00:46:00,
2013-05-04 20:52:00,44.0,39.3,30.28,North,0,0.0,0.0,84,-99.99,,,-99.99,PWS SA v1.10,2013-05-05 00:52:00,
2013-05-04 20:58:00,43.8,39.5,30.28,North,0,0.0,0.0,84,-99.99,,,-99.99,PWS SA v1.10,2013-05-05 00:58:00,
2013-05-04 21:04:00,43.6,39.4,30.28,North,0,0.0,0.0,85,-99.99,,,-99.99,PWS SA v1.10,2013-05-05 01:04:00,
2013-05-04 21:10:00,43.4,39.2,30.28,North,0,0.0,0.0,85,-99.99,,,-99.99,PWS SA v1.10,2013-05-05 01:10:00,
2013-05-04 21:16:00,43.3,39.4,30.29,North,0,0.0,0.0,86,-99.99,,,-99.99,PWS SA v1.10,2013-05-05 01:16:00,
2013-05-04 21:22:00,43.0,39.5,30.29,North,0,0.0,0.0,87,-99.99,,,-99.99,PWS SA v1.10,2013-05-05 01:22:00,
2013-05-04 21:28:00,42.9,39.5,30.28,North,0,0.0,0.0,87,-99.99,,,-99.99,PWS SA v1.10,2013-05-05 01:28:00,
2013-05-04 21:34:00,42.9,39.4,30.29,North,0,0.0,0.0,87,-99.99,,,-99.99,PWS SA v1.10,2013-05-05 01:34:00,
2013-05-04 21:40:00,42.8,39.2,30.29,North,0,0.0,0.0,87,-99.99,,,-99.99,PWS SA v1.10,2013-05-05 01:40:00,
2013-05-04 21:46:00,42.8,39.2,30.28,North,0,0.0,0.0,87,-99.99,,,-99.99,PWS SA v1.10,2013-05-05 01:46:00,
2013-05-04 21:52:00,42.4,39.3,30.28,North,0,0.0,0.0,87,-99.99,,,-99.99,PWS SA v1.10,2013-05-05 01:52:00,
2013-05-04 21:58:00,42.3,39.1,30.29,North,0,0.0,0.0,87,-99.99,,,-99.99,PWS SA v1.10,2013-05-05 01:58:00,
2013-05-04 22:04:00,42.2,39.1,30.28,North,0,0.0,0.0,87,-99.99,,,-99.99,PWS SA v1.10,2013-05-05 02:04:00,
2013-05-04 22:10:00,42.0,39.0,30.28,North,0,0.0,0.0,88,-99.99,,,-99.99,PWS SA v1.10,2013-05-05 02:10:00,
2013-05-04 22:16:00,41.9,38.6,30.28,North,0,0.0,0.0,88,-99.99,,,-99.99,PWS SA v1.10,2013-05-05 02:16:00,
2013-05-04 22:22:00,41.6,38.8,30.28,North,0,0.0,0.0,88,-99.99,,,-99.99,PWS SA v1.10,2013-05-05 02:22:00,
2013-05-04 22:28:00,41.5,38.5,30.28,North,0,0.0,0.0,89,-99.99,,,-99.99,PWS SA v1.10,2013-05-05 02:28:00,
2013-05-04 22:34:00,41.3,38.6,30.28,North,0,0.0,0.0,89,-99.99,,,-99.99,PWS SA v1.10,2013-05-05 02:34:00,
2013-05-04 22:40:00,41.4,38.6,30.28,North,0,0.0,0.0,89,-99.99,,,-99.99,PWS SA v1.10,2013-05-05 02:40:00,
2013-05-04 22:46:00,40.9,38.1,30.28,North,0,0.0,0.0,89,-99.99,,,-99.99,PWS SA v1.10,2013-05-05 02:46:00,
2013-05-04 22:52:00,40.9,38.3,30.28,North,0,0.0,0.0,90,-99.99,,,-99.99,PWS SA v1.10,2013-05-05 02:52:00,
2013-05-04 22:58:00,41.0,38.3,30.28,North,0,0.0,0.0,90,-99.99,,,-99.99,PWS SA v1.10,2013-05-05 02:58:00,
2013-05-04 23:04:00,40.7,38.3,30.28,North,0,0.0,0.0,90,-99.99,,,-99.99,PWS SA v1.10,2013-05-05 03:04:00,
2013-05-04 23:10:00,40.8,38.2,30.28,North,0,0.0,0.0,90,-99.99,,,-99.99,PWS SA v1.10,2013-05-05 03:10:00,
2013-05-04 23:16:00,40.2,38.0,30.28,North,0,0.0,0.0,91,-99.99,,,-99.99,PWS SA v1.10,2013-05-05 03:16:00,
2013-05-04 23:22:00,40.0,38.1,30.28,North,0,0.0,0.0,91,-99.99,,,-99.99,PWS SA v1.10,2013-05-05 03:22:00,
2013-05-04 23:28:00,39.9,38.2,30.28,North,0,0.0,0.0,92,-99.99,,,-99.99,PWS SA v1.10,2013-05-05 03:28:00,
2013-05-04 23:34:00,39.9,38.1,30.28,North,0,0.0,0.0,92,-99.99,,,-99.99,PWS SA v1.10,2013-05-05 03:34:00,
2013-05-04 23:40:00,40.2,38.2,30.28,North,0,0.0,0.0,93,-99.99,,,-99.99,PWS SA v1.10,2013-05-05 03:40:00,
2013-05-04 23:46:00,39.8,38.0,30.27,North,0,0.0,0.0,93,-99.99,,,-99.99,PWS SA v1.10,2013-05-05 03:46:00,
2013-05-04 23:52:00,39.5,37.6,30.27,North,0,0.0,0.0,93,-99.99,,,-99.99,PWS SA v1.10,2013-05-05 03:52:00,
2013-05-04 23:58:00,39.4,37.9,30.28,North,0,0.0,0.0,93,-99.99,,,-99.99,PWS SA v1.10,2013-05-05 03:58:00,